TimeEDT,TemperatureF,Dew PointF,Humidity,Sea Level PressureIn,VisibilityMPH,Wind Direction,Wind SpeedMPH,Gust SpeedMPH,PrecipitationIn,Events,Conditions,WindDirDegrees,DateUTC
12:09 AM,62.6,62.6,100,29.97,5.0,Calm,Calm,-,N/A,,Clear,0,2011-08-20 04:09:00
12:21 AM,62.6,62.6,100,29.97,5.0,Calm,Calm,-,N/A,,Clear,0,2011-08-20 04:21:00
12:33 AM,62.6,62.6,100,29.97,5.0,Calm,Calm,-,N/A,,Clear,0,2011-08-20 04:33:00
12:45 AM,62.6,62.6,100,29.97,5.0,Calm,Calm,-,N/A,,Clear,0,2011-08-20 04:45:00
1:06 AM,62.6,60.8,94,29.98,5.0,Calm,Calm,-,N/A,,Clear,0,2011-08-20 05:06:00
1:18 AM,62.6,60.8,94,29.98,5.0,Calm,Calm,-,N/A,,Clear,0,2011-08-20 05:18:00
1:30 AM,62.6,60.8,94,29.98,4.0,Calm,Calm,-,N/A,,Clear,0,2011-08-20 05:30:00
1:51 AM,62.6,60.8,94,29.97,4.0,Calm,Calm,-,N/A,,Clear,0,2011-08-20 05:51:00
2:03 AM,62.6,60.8,94,29.97,5.0,Calm,Calm,-,N/A,,Clear,0,2011-08-20 06:03:00
2:15 AM,62.6,60.8,94,29.97,4.0,Calm,Calm,-,N/A,,Clear,0,2011-08-20 06:15:00
2:36 AM,60.8,60.8,100,29.97,4.0,Calm,Calm,-,N/A,,Clear,0,2011-08-20 06:36:00
2:48 AM,60.8,60.8,100,29.97,5.0,Calm,Calm,-,N/A,,Clear,0,2011-08-20 06:48:00
3:12 AM,60.8,60.8,100,29.97,5.0,Calm,Calm,-,N/A,,Clear,0,2011-08-20 07:12:00
3:24 AM,60.8,60.8,100,29.96,5.0,Calm,Calm,-,N/A,,Clear,0,2011-08-20 07:24:00
3:33 AM,60.8,60.8,100,29.96,5.0,Calm,Calm,-,N/A,,Clear,0,2011-08-20 07:33:00
3:45 AM,60.8,59.0,94,29.96,4.0,Calm,Calm,-,N/A,,Clear,0,2011-08-20 07:45:00
3:57 AM,60.8,59.0,94,29.96,5.0,Calm,Calm,-,N/A,,Clear,0,2011-08-20 07:57:00
4:09 AM,60.8,59.0,94,29.96,5.0,South,3.5,-,N/A,,Clear,170,2011-08-20 08:09:00
4:18 AM,60.8,60.8,100,29.97,4.0,Calm,Calm,-,N/A,,Clear,0,2011-08-20 08:18:00
4:30 AM,60.8,59.0,94,29.97,5.0,Calm,Calm,-,N/A,,Scattered Clouds,0,2011-08-20 08:30:00
4:45 AM,60.8,59.0,94,29.97,4.0,Calm,Calm,-,N/A,,Clear,0,2011-08-20 08:45:00
4:57 AM,60.8,59.0,94,29.97,5.0,Calm,Calm,-,N/A,,Scattered Clouds,0,2011-08-20 08:57:00
5:09 AM,60.8,59.0,94,29.98,5.0,Calm,Calm,-,N/A,,Scattered Clouds,0,2011-08-20 09:09:00
5:24 AM,60.8,59.0,94,29.98,5.0,Calm,Calm,-,N/A,,Scattered Clouds,0,2011-08-20 09:24:00
5:36 AM,60.8,59.0,94,29.98,4.0,Calm,Calm,-,N/A,,Clear,0,2011-08-20 09:36:00
5:45 AM,60.8,59.0,94,29.99,5.0,Calm,Calm,-,N/A,,Clear,0,2011-08-20 09:45:00
5:57 AM,60.8,59.0,94,29.99,4.0,Calm,Calm,-,N/A,,Clear,0,2011-08-20 09:57:00
6:09 AM,59.0,59.0,100,29.99,4.0,Calm,Calm,-,N/A,,Clear,0,2011-08-20 10:09:00
6:24 AM,59.0,59.0,100,30.00,5.0,Calm,Calm,-,N/A,,Clear,0,2011-08-20 10:24:00
6:33 AM,59.0,59.0,100,30.01,5.0,Calm,Calm,-,N/A,,Clear,0,2011-08-20 10:33:00
6:45 AM,59.0,59.0,100,30.02,5.0,Calm,Calm,-,N/A,,Clear,0,2011-08-20 10:45:00
6:57 AM,60.8,59.0,94,30.02,4.0,Calm,Calm,-,N/A,,Clear,0,2011-08-20 10:57:00
7:09 AM,60.8,59.0,94,30.02,4.0,Calm,Calm,-,N/A,,Clear,0,2011-08-20 11:09:00
7:18 AM,60.8,60.8,100,30.03,4.0,Calm,Calm,-,N/A,,Clear,0,2011-08-20 11:18:00
7:30 AM,60.8,60.8,100,30.03,4.0,Calm,Calm,-,N/A,,Clear,0,2011-08-20 11:30:00
7:54 AM,62.6,62.6,100,30.03,5.0,Calm,Calm,-,N/A,,Clear,0,2011-08-20 11:54:00
8:03 AM,62.6,62.6,100,30.03,4.0,Calm,Calm,-,N/A,,Clear,0,2011-08-20 12:03:00
8:15 AM,64.4,64.4,100,30.03,5.0,Calm,Calm,-,N/A,,Clear,0,2011-08-20 12:15:00
8:27 AM,66.2,64.4,94,30.04,5.0,Calm,Calm,-,N/A,,Clear,0,2011-08-20 12:27:00
8:39 AM,68.0,64.4,88,30.04,7.0,Calm,Calm,-,N/A,,Clear,0,2011-08-20 12:39:00
8:48 AM,68.0,64.4,88,30.03,7.0,Calm,Calm,-,N/A,,Clear,0,2011-08-20 12:48:00
9:00 AM,69.8,64.4,83,30.03,10.0,Calm,Calm,-,N/A,,Clear,0,2011-08-20 13:00:00
9:12 AM,71.6,64.4,78,30.03,10.0,Calm,Calm,-,N/A,,Clear,0,2011-08-20 13:12:00
9:24 AM,71.6,64.4,78,30.03,10.0,WNW,3.5,-,N/A,,Clear,300,2011-08-20 13:24:00
9:36 AM,73.4,64.4,73,30.03,10.0,Calm,Calm,-,N/A,,Clear,0,2011-08-20 13:36:00
9:45 AM,73.4,64.4,73,30.04,10.0,Calm,Calm,-,N/A,,Clear,0,2011-08-20 13:45:00
9:57 AM,75.2,64.4,69,30.04,10.0,Calm,Calm,-,N/A,,Clear,0,2011-08-20 13:57:00
10:09 AM,75.2,64.4,69,30.04,10.0,Calm,Calm,-,N/A,,Clear,0,2011-08-20 14:09:00
10:21 AM,77.0,62.6,61,30.04,10.0,Calm,Calm,-,N/A,,Clear,0,2011-08-20 14:21:00
10:30 AM,77.0,62.6,61,30.04,10.0,Calm,Calm,-,N/A,,Clear,0,2011-08-20 14:30:00
10:42 AM,78.8,64.4,61,30.04,10.0,Calm,Calm,-,N/A,,Clear,0,2011-08-20 14:42:00
10:54 AM,78.8,62.6,57,30.03,10.0,ENE,3.5,-,N/A,,Clear,70,2011-08-20 14:54:00
11:06 AM,78.8,62.6,57,30.03,10.0,Calm,Calm,-,N/A,,Clear,0,2011-08-20 15:06:00
11:15 AM,78.8,62.6,57,30.03,10.0,Calm,Calm,-,N/A,,Clear,0,2011-08-20 15:15:00
11:27 AM,78.8,62.6,57,30.03,10.0,Calm,Calm,-,N/A,,Clear,0,2011-08-20 15:27:00
11:39 AM,78.8,62.6,57,30.03,10.0,SSW,3.5,-,N/A,,Clear,200,2011-08-20 15:39:00
11:51 AM,80.6,62.6,54,30.03,10.0,ENE,3.5,-,N/A,,Clear,60,2011-08-20 15:51:00
12:00 PM,80.6,62.6,54,30.02,10.0,Calm,Calm,-,N/A,,Clear,0,2011-08-20 16:00:00
12:12 PM,80.6,62.6,54,30.02,10.0,East,4.6,-,N/A,,Clear,90,2011-08-20 16:12:00
12:24 PM,80.6,62.6,54,30.02,10.0,Calm,Calm,-,N/A,,Clear,0,2011-08-20 16:24:00
12:36 PM,80.6,62.6,54,30.02,10.0,Calm,Calm,-,N/A,,Clear,0,2011-08-20 16:36:00
12:48 PM,80.6,62.6,54,30.03,10.0,West,4.6,-,N/A,,Clear,260,2011-08-20 16:48:00
12:57 PM,82.4,64.4,54,30.03,10.0,WSW,3.5,-,N/A,,Clear,240,2011-08-20 16:57:00
1:09 PM,82.4,60.8,48,30.02,10.0,WNW,3.5,-,N/A,,Clear,300,2011-08-20 17:09:00
1:21 PM,82.4,64.4,54,30.02,10.0,NW,3.5,-,N/A,,Clear,320,2011-08-20 17:21:00
1:33 PM,82.4,64.4,54,30.02,10.0,Calm,Calm,-,N/A,,Clear,0,2011-08-20 17:33:00
1:57 PM,82.4,64.4,54,30.01,10.0,NE,3.5,-,N/A,,Scattered Clouds,40,2011-08-20 17:57:00
2:09 PM,84.2,64.4,51,30.01,10.0,Calm,Calm,-,N/A,,Scattered Clouds,0,2011-08-20 18:09:00
2:18 PM,84.2,64.4,51,30.01,10.0,SSW,6.9,-,N/A,,Scattered Clouds,210,2011-08-20 18:18:00
2:30 PM,84.2,64.4,51,30.01,10.0,SE,4.6,-,N/A,,Scattered Clouds,130,2011-08-20 18:30:00
2:42 PM,84.2,62.6,48,30.01,10.0,South,5.8,-,N/A,,Scattered Clouds,190,2011-08-20 18:42:00
2:54 PM,84.2,64.4,51,30.01,10.0,Calm,Calm,-,N/A,,Clear,0,2011-08-20 18:54:00
3:06 PM,84.2,64.4,51,30.00,10.0,Calm,Calm,-,N/A,,Scattered Clouds,0,2011-08-20 19:06:00
3:15 PM,82.4,66.2,58,30.00,10.0,Calm,Calm,-,N/A,,Scattered Clouds,0,2011-08-20 19:15:00
3:27 PM,82.4,64.4,54,29.99,10.0,SSE,6.9,-,N/A,,Scattered Clouds,160,2011-08-20 19:27:00
3:39 PM,82.4,64.4,54,29.99,10.0,SE,3.5,-,N/A,,Clear,140,2011-08-20 19:39:00
3:51 PM,84.2,64.4,51,29.99,10.0,WSW,4.6,-,N/A,,Clear,240,2011-08-20 19:51:00
4:00 PM,84.2,64.4,51,29.99,10.0,SSE,6.9,-,N/A,,Clear,150,2011-08-20 20:00:00
4:12 PM,82.4,64.4,54,29.99,10.0,SSE,8.1,-,N/A,,Clear,150,2011-08-20 20:12:00
4:24 PM,84.2,64.4,51,29.99,10.0,South,3.5,-,N/A,,Clear,190,2011-08-20 20:24:00
4:36 PM,82.4,64.4,54,29.98,10.0,SSE,3.5,-,N/A,,Clear,160,2011-08-20 20:36:00
4:45 PM,82.4,64.4,54,29.98,10.0,SSE,3.5,-,N/A,,Clear,160,2011-08-20 20:45:00
4:57 PM,82.4,64.4,54,29.98,10.0,SE,5.8,-,N/A,,Clear,140,2011-08-20 20:57:00
5:09 PM,82.4,64.4,54,29.98,10.0,South,5.8,-,N/A,,Clear,180,2011-08-20 21:09:00
5:21 PM,82.4,66.2,58,29.98,10.0,SE,4.6,-,N/A,,Clear,140,2011-08-20 21:21:00
5:30 PM,82.4,66.2,58,29.98,10.0,SE,8.1,-,N/A,,Clear,140,2011-08-20 21:30:00
5:42 PM,80.6,66.2,61,29.98,10.0,SSE,9.2,-,N/A,,Clear,150,2011-08-20 21:42:00
5:54 PM,80.6,66.2,61,29.99,10.0,SSE,6.9,-,N/A,,Clear,150,2011-08-20 21:54:00
6:06 PM,80.6,66.2,61,29.99,10.0,SE,5.8,-,N/A,,Clear,140,2011-08-20 22:06:00
6:18 PM,80.6,68.0,65,29.98,10.0,SE,5.8,-,N/A,,Clear,140,2011-08-20 22:18:00
6:27 PM,80.6,68.0,65,29.99,10.0,SE,4.6,-,N/A,,Clear,140,2011-08-20 22:27:00
6:39 PM,80.6,68.0,65,29.98,10.0,SE,4.6,-,N/A,,Clear,140,2011-08-20 22:39:00
6:51 PM,78.8,68.0,69,29.98,10.0,SSE,5.8,-,N/A,,Clear,150,2011-08-20 22:51:00
7:03 PM,77.0,69.8,78,29.98,10.0,SE,5.8,-,N/A,,Clear,140,2011-08-20 23:03:00
7:12 PM,77.0,68.0,74,29.98,10.0,SE,4.6,-,N/A,,Clear,140,2011-08-20 23:12:00
7:24 PM,75.2,69.8,83,29.98,10.0,SE,4.6,-,N/A,,Clear,140,2011-08-20 23:24:00
7:36 PM,73.4,69.8,88,29.98,10.0,SE,3.5,-,N/A,,Clear,140,2011-08-20 23:36:00
7:48 PM,73.4,69.8,88,29.99,10.0,Calm,Calm,-,N/A,,Clear,0,2011-08-20 23:48:00
7:57 PM,73.4,69.8,88,29.99,7.0,Calm,Calm,-,N/A,,Clear,0,2011-08-20 23:57:00
8:09 PM,71.6,69.8,94,29.99,7.0,Calm,Calm,-,N/A,,Clear,0,2011-08-21 00:09:00
8:21 PM,71.6,69.8,94,29.99,7.0,SE,4.6,-,N/A,,Clear,140,2011-08-21 00:21:00
8:33 PM,71.6,68.0,88,29.99,7.0,SSE,3.5,-,N/A,,Clear,150,2011-08-21 00:33:00
8:42 PM,71.6,68.0,88,30.00,7.0,SE,3.5,-,N/A,,Clear,140,2011-08-21 00:42:00
9:06 PM,69.8,68.0,94,30.01,7.0,Calm,Calm,-,N/A,,Clear,0,2011-08-21 01:06:00
9:18 PM,69.8,68.0,94,30.01,5.0,Calm,Calm,-,N/A,,Clear,0,2011-08-21 01:18:00
9:30 PM,69.8,68.0,94,30.01,5.0,Calm,Calm,-,N/A,,Clear,0,2011-08-21 01:30:00
9:39 PM,69.8,68.0,94,30.01,5.0,Calm,Calm,-,N/A,,Clear,0,2011-08-21 01:39:00
9:54 PM,69.8,68.0,94,30.01,5.0,Calm,Calm,-,N/A,,Clear,0,2011-08-21 01:54:00
10:06 PM,69.8,68.0,94,30.02,5.0,Calm,Calm,-,N/A,,Clear,0,2011-08-21 02:06:00
10:18 PM,69.8,68.0,94,30.02,5.0,Calm,Calm,-,N/A,,Clear,0,2011-08-21 02:18:00
10:30 PM,69.8,68.0,94,30.02,4.0,Calm,Calm,-,N/A,,Clear,0,2011-08-21 02:30:00
10:42 PM,69.8,68.0,94,30.01,4.0,Calm,Calm,-,N/A,,Clear,0,2011-08-21 02:42:00
10:54 PM,68.0,68.0,100,30.02,4.0,Calm,Calm,-,N/A,,Clear,0,2011-08-21 02:54:00
11:03 PM,68.0,68.0,100,30.02,4.0,Calm,Calm,-,N/A,,Clear,0,2011-08-21 03:03:00
11:15 PM,68.0,68.0,100,30.02,4.0,Calm,Calm,-,N/A,,Clear,0,2011-08-21 03:15:00
11:30 PM,68.0,66.2,94,30.02,3.0,Calm,Calm,-,N/A,,Clear,0,2011-08-21 03:30:00
11:42 PM,68.0,66.2,94,30.02,4.0,Calm,Calm,-,N/A,,Clear,0,2011-08-21 03:42:00
11:51 PM,68.0,66.2,94,30.01,3.0,Calm,Calm,-,N/A,,Clear,0,2011-08-21 03:51:00